Time,TemperatureF,DewpointF,PressureIn,WindDirection,WindDirectionDegrees,WindSpeedMPH,WindSpeedGustMPH,Humidity,HourlyPrecipIn,Conditions,Clouds,dailyrainin,SolarRadiationWatts/m^2,SoftwareType,DateUTC
2013-06-15 00:01:00,57.6,54.9,29.84,SSE,151,0.0,0.0,91,0.00,,,0.00,0,HR-IXPWINDi_r2_v1.2.,2013-06-15 04:01:00,
2013-06-15 00:06:00,57.5,54.8,29.84,SSE,151,0.0,0.0,91,0.00,,,0.00,0,HR-IXPWINDi_r2_v1.2.,2013-06-15 04:06:00,
2013-06-15 00:11:00,57.3,54.6,29.84,SSE,151,0.0,0.0,91,0.00,,,0.00,0,HR-IXPWINDi_r2_v1.2.,2013-06-15 04:11:00,
2013-06-15 00:16:00,57.3,54.6,29.84,SE,144,0.0,0.0,91,0.00,,,0.00,0,HR-IXPWINDi_r2_v1.2.,2013-06-15 04:16:00,
2013-06-15 00:21:00,57.2,54.5,29.84,SSE,151,0.0,0.0,91,0.00,,,0.00,0,HR-IXPWINDi_r2_v1.2.,2013-06-15 04:21:00,
2013-06-15 00:26:00,57.2,54.8,29.84,SSE,151,0.0,0.0,92,0.00,,,0.00,0,HR-IXPWINDi_r2_v1.2.,2013-06-15 04:26:00,
2013-06-15 00:32:00,57.2,54.8,29.84,SSE,151,0.0,0.0,92,0.00,,,0.00,0,HR-IXPWINDi_r2_v1.2.,2013-06-15 04:32:00,
2013-06-15 00:37:00,57.3,54.9,29.85,SSE,151,0.0,0.0,92,0.00,,,0.00,0,HR-IXPWINDi_r2_v1.2.,2013-06-15 04:37:00,
2013-06-15 00:42:00,57.2,54.8,29.85,SSE,151,0.0,0.0,92,0.00,,,0.00,0,HR-IXPWINDi_r2_v1.2.,2013-06-15 04:42:00,
2013-06-15 00:47:00,57.2,54.8,29.85,SSE,151,0.0,0.0,92,0.00,,,0.00,0,HR-IXPWINDi_r2_v1.2.,2013-06-15 04:47:00,
2013-06-15 00:52:00,57.2,54.8,29.85,SSE,151,0.0,0.0,92,0.00,,,0.00,0,HR-IXPWINDi_r2_v1.2.,2013-06-15 04:52:00,
2013-06-15 00:57:00,57.0,54.6,29.85,SSE,151,0.0,0.0,92,0.00,,,0.00,0,HR-IXPWINDi_r2_v1.2.,2013-06-15 04:57:00,
2013-06-15 01:03:00,57.2,54.8,29.85,SSE,151,0.0,0.0,92,0.00,,,0.00,0,HR-IXPWINDi_r2_v1.2.,2013-06-15 05:03:00,
2013-06-15 01:08:00,57.0,54.6,29.84,SSE,151,0.0,0.0,92,0.00,,,0.00,0,HR-IXPWINDi_r2_v1.2.,2013-06-15 05:08:00,
2013-06-15 01:13:00,57.0,54.6,29.84,SSE,151,0.0,0.0,92,0.00,,,0.00,0,HR-IXPWINDi_r2_v1.2.,2013-06-15 05:13:00,
2013-06-15 01:18:00,57.0,54.6,29.84,SSE,151,0.0,0.0,92,0.00,,,0.00,0,HR-IXPWINDi_r2_v1.2.,2013-06-15 05:18:00,
2013-06-15 01:23:00,56.9,54.5,29.85,SSE,151,0.0,0.0,92,0.00,,,0.00,0,HR-IXPWINDi_r2_v1.2.,2013-06-15 05:23:00,
2013-06-15 01:29:00,56.9,54.5,29.85,SSE,151,0.0,0.0,92,0.00,,,0.00,0,HR-IXPWINDi_r2_v1.2.,2013-06-15 05:29:00,
2013-06-15 01:34:00,57.0,54.6,29.85,SSE,151,0.0,0.0,92,0.00,,,0.00,0,HR-IXPWINDi_r2_v1.2.,2013-06-15 05:34:00,
2013-06-15 01:39:00,56.9,54.5,29.85,SSE,151,0.0,0.0,92,0.00,,,0.00,0,HR-IXPWINDi_r2_v1.2.,2013-06-15 05:39:00,
2013-06-15 01:44:00,56.7,54.3,29.85,SSE,151,0.0,0.0,92,0.00,,,0.00,0,HR-IXPWINDi_r2_v1.2.,2013-06-15 05:44:00,
2013-06-15 01:49:00,56.6,54.2,29.85,SSE,151,0.0,0.0,92,0.00,,,0.00,0,HR-IXPWINDi_r2_v1.2.,2013-06-15 05:49:00,
2013-06-15 01:54:00,56.7,54.3,29.85,SSE,151,0.0,0.0,92,0.00,,,0.00,0,HR-IXPWINDi_r2_v1.2.,2013-06-15 05:54:00,
2013-06-15 02:00:00,56.6,54.2,29.85,SSE,151,0.0,0.0,92,0.00,,,0.00,0,HR-IXPWINDi_r2_v1.2.,2013-06-15 06:00:00,
2013-06-15 02:05:00,56.6,54.2,29.85,SSE,151,0.0,0.0,92,0.00,,,0.00,0,HR-IXPWINDi_r2_v1.2.,2013-06-15 06:05:00,
2013-06-15 02:10:00,56.5,54.4,29.85,SSE,151,0.0,0.0,93,0.00,,,0.00,0,HR-IXPWINDi_r2_v1.2.,2013-06-15 06:10:00,
2013-06-15 02:15:00,56.5,54.1,29.85,SSE,151,0.0,0.0,92,0.00,,,0.00,0,HR-IXPWINDi_r2_v1.2.,2013-06-15 06:15:00,
2013-06-15 02:20:00,56.5,54.4,29.85,SSE,151,0.0,0.0,93,0.00,,,0.00,0,HR-IXPWINDi_r2_v1.2.,2013-06-15 06:20:00,
2013-06-15 02:26:00,56.5,54.4,29.85,SSE,151,0.0,0.0,93,0.00,,,0.00,0,HR-IXPWINDi_r2_v1.2.,2013-06-15 06:26:00,
2013-06-15 02:31:00,56.5,54.4,29.85,SSE,151,0.0,0.0,93,0.00,,,0.00,0,HR-IXPWINDi_r2_v1.2.,2013-06-15 06:31:00,
2013-06-15 02:36:00,56.3,54.2,29.86,SSE,151,0.0,0.0,93,0.00,,,0.00,0,HR-IXPWINDi_r2_v1.2.,2013-06-15 06:36:00,
2013-06-15 02:41:00,56.3,54.2,29.86,SSE,151,0.0,0.0,93,0.00,,,0.00,0,HR-IXPWINDi_r2_v1.2.,2013-06-15 06:41:00,
2013-06-15 02:46:00,56.5,54.4,29.86,SSE,151,0.0,0.0,93,0.00,,,0.00,0,HR-IXPWINDi_r2_v1.2.,2013-06-15 06:46:00,
2013-06-15 02:52:00,56.5,54.4,29.86,SSE,151,0.0,0.0,93,0.00,,,0.00,0,HR-IXPWINDi_r2_v1.2.,2013-06-15 06:52:00,
2013-06-15 02:57:00,56.5,54.4,29.86,SSE,151,0.0,0.0,93,0.00,,,0.00,0,HR-IXPWINDi_r2_v1.2.,2013-06-15 06:57:00,
2013-06-15 03:02:00,56.5,54.4,29.86,SSE,151,0.0,0.0,93,0.00,,,0.00,0,HR-IXPWINDi_r2_v1.2.,2013-06-15 07:02:00,
2013-06-15 03:07:00,56.5,54.4,29.87,SSE,151,0.0,0.0,93,0.00,,,0.00,0,HR-IXPWINDi_r2_v1.2.,2013-06-15 07:07:00,
2013-06-15 03:12:00,56.6,54.5,29.87,SSE,151,0.0,0.0,93,0.00,,,0.00,0,HR-IXPWINDi_r2_v1.2.,2013-06-15 07:12:00,
2013-06-15 03:17:00,56.6,54.5,29.87,SSE,151,0.0,0.0,93,0.00,,,0.00,0,HR-IXPWINDi_r2_v1.2.,2013-06-15 07:17:00,
2013-06-15 03:23:00,56.7,54.6,29.87,SSE,151,0.0,0.0,93,0.00,,,0.00,0,HR-IXPWINDi_r2_v1.2.,2013-06-15 07:23:00,
2013-06-15 03:28:00,56.7,54.6,29.87,SE,144,0.0,0.0,93,0.00,,,0.00,0,HR-IXPWINDi_r2_v1.2.,2013-06-15 07:28:00,
2013-06-15 03:33:00,56.9,54.8,29.87,SSE,151,0.0,0.0,93,0.00,,,0.00,0,HR-IXPWINDi_r2_v1.2.,2013-06-15 07:33:00,
2013-06-15 03:38:00,56.9,54.8,29.87,SSE,151,0.0,0.0,93,0.00,,,0.00,0,HR-IXPWINDi_r2_v1.2.,2013-06-15 07:38:00,
2013-06-15 03:43:00,56.9,54.8,29.87,SSE,151,0.0,0.0,93,0.00,,,0.00,0,HR-IXPWINDi_r2_v1.2.,2013-06-15 07:43:00,
2013-06-15 03:49:00,56.9,54.8,29.87,SSE,151,0.0,0.0,93,0.00,,,0.00,0,HR-IXPWINDi_r2_v1.2.,2013-06-15 07:49:00,
2013-06-15 03:54:00,56.9,54.8,29.87,SSE,151,0.0,0.0,93,0.00,,,0.00,0,HR-IXPWINDi_r2_v1.2.,2013-06-15 07:54:00,
2013-06-15 03:59:00,56.9,54.8,29.87,SSE,151,0.0,0.0,93,0.00,,,0.00,0,HR-IXPWINDi_r2_v1.2.,2013-06-15 07:59:00,
2013-06-15 04:04:00,56.9,55.1,29.87,SSE,151,0.0,0.0,94,0.00,,,0.00,0,HR-IXPWINDi_r2_v1.2.,2013-06-15 08:04:00,
2013-06-15 04:10:00,56.9,55.1,29.87,SE,144,0.0,0.0,94,0.00,,,0.00,0,HR-IXPWINDi_r2_v1.2.,2013-06-15 08:10:00,
2013-06-15 04:15:00,57.0,55.2,29.87,SSE,151,0.0,0.0,94,0.00,,,0.00,0,HR-IXPWINDi_r2_v1.2.,2013-06-15 08:15:00,
2013-06-15 04:20:00,56.9,55.1,29.87,SSE,151,0.0,0.0,94,0.00,,,0.00,0,HR-IXPWINDi_r2_v1.2.,2013-06-15 08:20:00,
2013-06-15 04:25:00,57.0,55.2,29.87,SSE,151,0.0,0.0,94,0.00,,,0.00,0,HR-IXPWINDi_r2_v1.2.,2013-06-15 08:25:00,
2013-06-15 04:30:00,56.9,55.1,29.87,SSE,151,0.0,0.0,94,0.00,,,0.00,0,HR-IXPWINDi_r2_v1.2.,2013-06-15 08:30:00,
2013-06-15 04:35:00,56.9,55.1,29.88,SSE,151,0.0,0.0,94,0.00,,,0.00,0,HR-IXPWINDi_r2_v1.2.,2013-06-15 08:35:00,
2013-06-15 04:41:00,56.9,55.1,29.88,SSE,151,0.0,0.0,94,0.00,,,0.00,0,HR-IXPWINDi_r2_v1.2.,2013-06-15 08:41:00,
2013-06-15 04:46:00,56.9,55.1,29.88,SSE,151,0.0,0.0,94,0.00,,,0.00,0,HR-IXPWINDi_r2_v1.2.,2013-06-15 08:46:00,
2013-06-15 04:51:00,56.7,54.9,29.88,SSE,151,0.0,0.0,94,0.00,,,0.00,0,HR-IXPWINDi_r2_v1.2.,2013-06-15 08:51:00,
2013-06-15 04:56:00,56.6,54.8,29.88,SSE,151,0.0,0.0,94,0.00,,,0.00,0,HR-IXPWINDi_r2_v1.2.,2013-06-15 08:56:00,
2013-06-15 05:01:00,56.7,54.9,29.88,SSE,151,0.0,0.0,94,0.00,,,0.00,0,HR-IXPWINDi_r2_v1.2.,2013-06-15 09:01:00,
2013-06-15 05:07:00,56.6,54.8,29.88,SSE,151,0.0,0.0,94,0.00,,,0.00,0,HR-IXPWINDi_r2_v1.2.,2013-06-15 09:07:00,
2013-06-15 05:12:00,56.6,54.8,29.88,SSE,151,0.0,0.0,94,0.00,,,0.00,0,HR-IXPWINDi_r2_v1.2.,2013-06-15 09:12:00,
2013-06-15 05:17:00,56.5,54.7,29.88,SSE,151,0.0,0.0,94,0.00,,,0.00,0,HR-IXPWINDi_r2_v1.2.,2013-06-15 09:17:00,
2013-06-15 05:22:00,56.5,54.7,29.89,SSE,151,0.0,0.0,94,0.00,,,0.00,0,HR-IXPWINDi_r2_v1.2.,2013-06-15 09:22:00,
2013-06-15 05:27:00,56.2,54.4,29.89,SSE,151,0.0,0.0,94,0.00,,,0.00,0,HR-IXPWINDi_r2_v1.2.,2013-06-15 09:27:00,
2013-06-15 05:32:00,56.0,54.2,29.89,SSE,151,0.0,0.0,94,0.00,,,0.00,0,HR-IXPWINDi_r2_v1.2.,2013-06-15 09:32:00,
2013-06-15 05:38:00,56.2,54.4,29.90,SSE,151,0.0,0.0,94,0.00,,,0.00,0,HR-IXPWINDi_r2_v1.2.,2013-06-15 09:38:00,
2013-06-15 05:43:00,56.0,54.2,29.90,SSE,151,0.0,0.0,94,0.00,,,0.00,0,HR-IXPWINDi_r2_v1.2.,2013-06-15 09:43:00,
2013-06-15 05:48:00,56.0,54.2,29.90,SSE,151,0.0,0.0,94,0.00,,,0.00,5,HR-IXPWINDi_r2_v1.2.,2013-06-15 09:48:00,
2013-06-15 05:53:00,56.3,54.5,29.90,SSE,151,0.0,0.0,94,0.00,,,0.00,7,HR-IXPWINDi_r2_v1.2.,2013-06-15 09:53:00,
2013-06-15 05:58:00,56.5,54.7,29.90,SSE,151,0.0,0.0,94,0.00,,,0.00,11,HR-IXPWINDi_r2_v1.2.,2013-06-15 09:58:00,
2013-06-15 06:04:00,56.5,54.7,29.90,SSE,151,0.0,0.0,94,0.00,,,0.00,12,HR-IXPWINDi_r2_v1.2.,2013-06-15 10:04:00,
2013-06-15 06:09:00,56.6,54.8,29.90,SSE,151,0.0,0.0,94,0.00,,,0.00,14,HR-IXPWINDi_r2_v1.2.,2013-06-15 10:09:00,
2013-06-15 06:14:00,56.7,54.9,29.90,SSE,151,0.0,0.0,94,0.00,,,0.00,18,HR-IXPWINDi_r2_v1.2.,2013-06-15 10:14:00,
2013-06-15 06:19:00,56.9,55.1,29.90,SSE,151,0.0,0.0,94,0.00,,,0.00,42,HR-IXPWINDi_r2_v1.2.,2013-06-15 10:19:00,
2013-06-15 06:24:00,56.9,55.1,29.90,SSE,151,0.0,0.0,94,0.00,,,0.00,79,HR-IXPWINDi_r2_v1.2.,2013-06-15 10:24:00,
2013-06-15 06:30:00,57.2,55.4,29.90,SSE,151,0.0,0.0,94,0.00,,,0.00,56,HR-IXPWINDi_r2_v1.2.,2013-06-15 10:30:00,
2013-06-15 06:35:00,57.5,55.7,29.91,SSE,151,0.0,0.0,94,0.00,,,0.00,28,HR-IXPWINDi_r2_v1.2.,2013-06-15 10:35:00,
2013-06-15 06:40:00,57.8,56.0,29.91,SSE,151,0.0,0.0,94,0.00,,,0.00,30,HR-IXPWINDi_r2_v1.2.,2013-06-15 10:40:00,
2013-06-15 06:45:00,58.1,56.3,29.91,SSE,151,0.0,0.0,94,0.00,,,0.00,30,HR-IXPWINDi_r2_v1.2.,2013-06-15 10:45:00,
2013-06-15 06:51:00,58.3,56.5,29.91,SSE,151,0.0,0.0,94,0.00,,,0.00,26,HR-IXPWINDi_r2_v1.2.,2013-06-15 10:51:00,
2013-06-15 06:56:00,58.6,56.8,29.91,SSE,151,0.0,0.0,94,0.00,,,0.00,28,HR-IXPWINDi_r2_v1.2.,2013-06-15 10:56:00,
2013-06-15 07:01:00,58.7,57.2,29.91,SSE,151,0.0,0.0,95,0.00,,,0.00,30,HR-IXPWINDi_r2_v1.2.,2013-06-15 11:01:00,
2013-06-15 07:06:00,59.0,57.5,29.92,SSE,151,0.0,0.0,95,0.00,,,0.00,33,HR-IXPWINDi_r2_v1.2.,2013-06-15 11:06:00,
2013-06-15 07:11:00,59.5,58.0,29.92,SSE,151,0.0,0.0,95,0.00,,,0.00,32,HR-IXPWINDi_r2_v1.2.,2013-06-15 11:11:00,
2013-06-15 07:17:00,59.6,58.1,29.92,SSE,151,0.0,0.0,95,0.00,,,0.00,74,HR-IXPWINDi_r2_v1.2.,2013-06-15 11:17:00,
2013-06-15 07:22:00,60.1,58.6,29.93,SSE,151,0.0,0.0,95,0.00,,,0.00,128,HR-IXPWINDi_r2_v1.2.,2013-06-15 11:22:00,
2013-06-15 07:27:00,60.5,59.0,29.93,SSE,151,0.0,0.0,95,0.00,,,0.00,42,HR-IXPWINDi_r2_v1.2.,2013-06-15 11:27:00,
2013-06-15 07:32:00,61.0,59.5,29.93,SSE,151,0.0,0.0,95,0.00,,,0.00,55,HR-IXPWINDi_r2_v1.2.,2013-06-15 11:32:00,
2013-06-15 07:38:00,61.5,60.0,29.93,SSE,151,0.0,0.0,95,0.00,,,0.00,44,HR-IXPWINDi_r2_v1.2.,2013-06-15 11:38:00,
2013-06-15 07:43:00,62.0,60.5,29.93,SSE,151,0.0,0.0,95,0.00,,,0.00,44,HR-IXPWINDi_r2_v1.2.,2013-06-15 11:43:00,
2013-06-15 07:48:00,62.4,60.9,29.93,SSE,151,0.0,0.0,95,0.00,,,0.00,40,HR-IXPWINDi_r2_v1.2.,2013-06-15 11:48:00,
2013-06-15 07:53:00,62.9,61.4,29.93,SSE,151,0.0,0.0,95,0.00,,,0.00,44,HR-IXPWINDi_r2_v1.2.,2013-06-15 11:53:00,
2013-06-15 07:58:00,63.5,62.0,29.93,SSE,151,0.0,0.0,95,0.00,,,0.00,46,HR-IXPWINDi_r2_v1.2.,2013-06-15 11:58:00,
2013-06-15 08:03:00,63.7,62.2,29.93,SSE,151,0.0,1.0,95,0.00,,,0.00,42,HR-IXPWINDi_r2_v1.2.,2013-06-15 12:03:00,
2013-06-15 08:09:00,64.0,62.2,29.93,SE,144,0.0,1.0,94,0.00,,,0.00,46,HR-IXPWINDi_r2_v1.2.,2013-06-15 12:09:00,
2013-06-15 08:14:00,64.5,62.7,29.93,SSE,151,0.0,0.0,94,0.00,,,0.00,46,HR-IXPWINDi_r2_v1.2.,2013-06-15 12:14:00,
2013-06-15 08:19:00,65.0,63.2,29.93,SSE,151,0.0,0.0,94,0.00,,,0.00,48,HR-IXPWINDi_r2_v1.2.,2013-06-15 12:19:00,
2013-06-15 08:24:00,65.2,63.1,29.93,SSE,151,0.0,0.0,93,0.00,,,0.00,48,HR-IXPWINDi_r2_v1.2.,2013-06-15 12:24:00,
2013-06-15 08:29:00,65.2,62.7,29.93,SSE,150,0.0,0.0,92,0.00,,,0.00,49,HR-IXPWINDi_r2_v1.2.,2013-06-15 12:29:00,
2013-06-15 08:34:00,65.3,61.6,29.93,SSE,148,0.0,0.0,88,0.00,,,0.00,51,HR-IXPWINDi_r2_v1.2.,2013-06-15 12:34:00,
2013-06-15 08:40:00,65.5,60.8,29.94,SSE,150,0.0,0.0,85,0.00,,,0.00,51,HR-IXPWINDi_r2_v1.2.,2013-06-15 12:40:00,
2013-06-15 08:45:00,65.6,59.2,29.94,SSE,150,1.0,3.0,80,0.00,,,0.00,55,HR-IXPWINDi_r2_v1.2.,2013-06-15 12:45:00,
2013-06-15 08:50:00,66.1,59.0,29.95,SSE,148,0.0,3.0,78,0.00,,,0.00,120,HR-IXPWINDi_r2_v1.2.,2013-06-15 12:50:00,
2013-06-15 08:55:00,66.4,57.8,29.95,NE,52,1.0,2.0,74,0.00,,,0.00,104,HR-IXPWINDi_r2_v1.2.,2013-06-15 12:55:00,
2013-06-15 09:00:00,66.9,57.5,29.95,ENE,59,0.0,3.0,72,0.00,,,0.00,83,HR-IXPWINDi_r2_v1.2.,2013-06-15 13:00:00,
2013-06-15 09:05:00,67.6,57.8,29.96,ENE,59,0.0,3.0,71,0.00,,,0.00,91,HR-IXPWINDi_r2_v1.2.,2013-06-15 13:05:00,
2013-06-15 09:11:00,68.1,57.9,29.96,ENE,59,0.0,2.0,70,0.00,,,0.00,109,HR-IXPWINDi_r2_v1.2.,2013-06-15 13:11:00,
2013-06-15 09:16:00,68.3,57.7,29.96,ENE,71,1.0,3.0,69,0.00,,,0.00,109,HR-IXPWINDi_r2_v1.2.,2013-06-15 13:16:00,
2013-06-15 09:21:00,68.4,57.4,29.96,NE,48,0.0,3.0,68,0.00,,,0.00,74,HR-IXPWINDi_r2_v1.2.,2013-06-15 13:21:00,
2013-06-15 09:26:00,68.6,57.1,29.96,ENE,61,0.0,3.0,67,0.00,,,0.00,69,HR-IXPWINDi_r2_v1.2.,2013-06-15 13:26:00,
2013-06-15 09:31:00,68.6,56.3,29.96,NE,54,0.0,3.0,65,0.00,,,0.00,69,HR-IXPWINDi_r2_v1.2.,2013-06-15 13:31:00,
2013-06-15 09:36:00,68.6,55.9,29.96,North,6,0.0,3.0,64,0.00,,,0.00,72,HR-IXPWINDi_r2_v1.2.,2013-06-15 13:36:00,
2013-06-15 09:41:00,68.8,56.5,29.96,SSW,200,0.0,5.0,65,0.00,,,0.00,74,HR-IXPWINDi_r2_v1.2.,2013-06-15 13:41:00,
2013-06-15 09:46:00,68.8,55.6,29.96,SSW,199,2.0,5.0,63,0.00,,,0.00,99,HR-IXPWINDi_r2_v1.2.,2013-06-15 13:46:00,
2013-06-15 09:52:00,69.1,55.0,29.96,SSE,157,0.0,5.0,61,0.00,,,0.00,76,HR-IXPWINDi_r2_v1.2.,2013-06-15 13:52:00,
2013-06-15 09:57:00,69.3,54.3,29.96,SSE,150,0.0,5.0,59,0.00,,,0.00,97,HR-IXPWINDi_r2_v1.2.,2013-06-15 13:57:00,
2013-06-15 10:02:00,69.6,54.1,29.96,SSE,150,0.0,3.0,58,0.00,,,0.00,109,HR-IXPWINDi_r2_v1.2.,2013-06-15 14:02:00,
2013-06-15 10:07:00,69.8,53.3,29.95,SE,137,1.0,3.0,56,0.00,,,0.00,77,HR-IXPWINDi_r2_v1.2.,2013-06-15 14:07:00,
2013-06-15 10:12:00,69.9,53.9,29.95,SE,137,0.0,3.0,57,0.00,,,0.00,81,HR-IXPWINDi_r2_v1.2.,2013-06-15 14:12:00,
2013-06-15 10:17:00,70.1,53.6,29.95,SE,137,0.0,2.0,56,0.00,,,0.00,79,HR-IXPWINDi_r2_v1.2.,2013-06-15 14:17:00,
2013-06-15 10:23:00,70.3,51.8,29.94,North,359,0.0,2.0,52,0.00,,,0.00,139,HR-IXPWINDi_r2_v1.2.,2013-06-15 14:23:00,
2013-06-15 10:28:00,70.4,51.9,29.94,North,6,1.0,2.0,52,0.00,,,0.00,252,HR-IXPWINDi_r2_v1.2.,2013-06-15 14:28:00,
2013-06-15 10:33:00,70.6,51.0,29.94,SE,128,2.0,3.0,50,0.00,,,0.00,320,HR-IXPWINDi_r2_v1.2.,2013-06-15 14:33:00,
2013-06-15 10:38:00,70.9,50.2,29.94,SE,137,2.0,3.0,48,0.00,,,0.00,81,HR-IXPWINDi_r2_v1.2.,2013-06-15 14:38:00,
2013-06-15 10:43:00,70.9,51.3,29.94,ESE,109,2.0,3.0,50,0.00,,,0.00,88,HR-IXPWINDi_r2_v1.2.,2013-06-15 14:43:00,
2013-06-15 10:49:00,71.1,50.4,29.94,WSW,258,0.0,5.0,48,0.00,,,0.00,84,HR-IXPWINDi_r2_v1.2.,2013-06-15 14:49:00,
2013-06-15 10:54:00,70.9,50.7,29.94,SE,138,3.0,5.0,49,0.00,,,0.00,88,HR-IXPWINDi_r2_v1.2.,2013-06-15 14:54:00,
2013-06-15 10:59:00,71.3,52.2,29.94,NNW,335,1.0,6.0,51,0.00,,,0.00,93,HR-IXPWINDi_r2_v1.2.,2013-06-15 14:59:00,
2013-06-15 11:04:00,71.5,51.3,29.94,NNW,340,0.0,6.0,49,0.00,,,0.00,86,HR-IXPWINDi_r2_v1.2.,2013-06-15 15:04:00,
2013-06-15 11:09:00,71.5,51.8,29.95,NNW,340,0.0,3.0,50,0.00,,,0.00,84,HR-IXPWINDi_r2_v1.2.,2013-06-15 15:09:00,
2013-06-15 11:14:00,71.6,50.3,29.95,SE,130,0.0,4.0,47,0.00,,,0.00,95,HR-IXPWINDi_r2_v1.2.,2013-06-15 15:14:00,
2013-06-15 11:19:00,71.8,51.0,29.95,SE,130,0.0,4.0,48,0.00,,,0.00,88,HR-IXPWINDi_r2_v1.2.,2013-06-15 15:19:00,
2013-06-15 11:25:00,71.8,49.9,29.95,NNE,13,2.0,3.0,46,0.00,,,0.00,93,HR-IXPWINDi_r2_v1.2.,2013-06-15 15:25:00,
2013-06-15 11:30:00,72.1,50.1,29.95,SSE,148,1.0,3.0,46,0.00,,,0.00,91,HR-IXPWINDi_r2_v1.2.,2013-06-15 15:30:00,
2013-06-15 11:35:00,72.3,50.9,29.95,SSE,165,1.0,5.0,47,0.00,,,0.00,91,HR-IXPWINDi_r2_v1.2.,2013-06-15 15:35:00,
2013-06-15 11:41:00,72.3,50.3,29.95,East,89,3.0,5.0,46,0.00,,,0.00,93,HR-IXPWINDi_r2_v1.2.,2013-06-15 15:41:00,
2013-06-15 11:46:00,72.5,51.1,29.95,ESE,107,3.0,6.0,47,0.00,,,0.00,95,HR-IXPWINDi_r2_v1.2.,2013-06-15 15:46:00,
2013-06-15 11:51:00,72.5,49.3,29.95,ESE,109,2.0,6.0,44,0.00,,,0.00,99,HR-IXPWINDi_r2_v1.2.,2013-06-15 15:51:00,
2013-06-15 11:56:00,72.7,49.5,29.95,East,100,2.0,6.0,44,0.00,,,0.00,132,HR-IXPWINDi_r2_v1.2.,2013-06-15 15:56:00,
2013-06-15 12:02:00,72.8,49.6,29.95,East,88,0.0,6.0,44,0.00,,,0.00,889,HR-IXPWINDi_r2_v1.2.,2013-06-15 16:02:00,
2013-06-15 12:07:00,73.0,50.4,29.94,ENE,68,3.0,5.0,45,0.00,,,0.00,899,HR-IXPWINDi_r2_v1.2.,2013-06-15 16:07:00,
2013-06-15 12:12:00,73.3,50.6,29.94,SSE,148,2.0,5.0,45,0.00,,,0.00,915,HR-IXPWINDi_r2_v1.2.,2013-06-15 16:12:00,
2013-06-15 12:17:00,73.5,50.8,29.94,SE,126,2.0,4.0,45,0.00,,,0.00,917,HR-IXPWINDi_r2_v1.2.,2013-06-15 16:17:00,
2013-06-15 12:22:00,73.9,50.6,29.94,East,88,2.0,4.0,44,0.00,,,0.00,904,HR-IXPWINDi_r2_v1.2.,2013-06-15 16:22:00,
2013-06-15 12:27:00,73.7,50.4,29.94,East,89,2.0,3.0,44,0.00,,,0.00,926,HR-IXPWINDi_r2_v1.2.,2013-06-15 16:27:00,
2013-06-15 12:32:00,73.9,51.8,29.94,East,96,1.0,3.0,46,0.00,,,0.00,940,HR-IXPWINDi_r2_v1.2.,2013-06-15 16:32:00,
2013-06-15 12:38:00,74.4,50.4,29.93,East,93,0.0,3.0,43,0.00,,,0.00,934,HR-IXPWINDi_r2_v1.2.,2013-06-15 16:38:00,
2013-06-15 12:43:00,74.7,51.3,29.93,East,95,0.0,3.0,44,0.00,,,0.00,931,HR-IXPWINDi_r2_v1.2.,2013-06-15 16:43:00,
2013-06-15 12:48:00,74.9,47.5,29.93,ESE,123,2.0,6.0,38,0.00,,,0.00,959,HR-IXPWINDi_r2_v1.2.,2013-06-15 16:48:00,
2013-06-15 12:53:00,74.6,47.3,29.93,NE,55,2.0,6.0,38,0.00,,,0.00,940,HR-IXPWINDi_r2_v1.2.,2013-06-15 16:53:00,
2013-06-15 12:58:00,74.7,48.7,29.93,South,174,2.0,6.0,40,0.00,,,0.00,934,HR-IXPWINDi_r2_v1.2.,2013-06-15 16:58:00,
2013-06-15 13:03:00,75.1,50.4,29.93,East,92,1.0,3.0,42,0.00,,,0.00,955,HR-IXPWINDi_r2_v1.2.,2013-06-15 17:03:00,
2013-06-15 13:09:00,75.6,48.2,29.93,SW,219,1.0,5.0,38,0.00,,,0.00,1052,HR-IXPWINDi_r2_v1.2.,2013-06-15 17:09:00,
2013-06-15 13:14:00,75.4,48.7,29.93,SSE,151,0.0,5.0,39,0.00,,,0.00,1035,HR-IXPWINDi_r2_v1.2.,2013-06-15 17:14:00,
2013-06-15 13:19:00,75.4,50.7,29.93,ENE,58,3.0,5.0,42,0.00,,,0.00,1001,HR-IXPWINDi_r2_v1.2.,2013-06-15 17:19:00,
2013-06-15 13:24:00,75.1,49.8,29.93,ENE,68,0.0,5.0,41,0.00,,,0.00,167,HR-IXPWINDi_r2_v1.2.,2013-06-15 17:24:00,
2013-06-15 13:30:00,74.6,49.3,29.93,ENE,78,2.0,3.0,41,0.00,,,0.00,144,HR-IXPWINDi_r2_v1.2.,2013-06-15 17:30:00,
2013-06-15 13:35:00,74.2,48.9,29.93,ESE,106,0.0,3.0,41,0.00,,,0.00,267,HR-IXPWINDi_r2_v1.2.,2013-06-15 17:35:00,
2013-06-15 13:40:00,74.2,50.2,29.93,East,88,2.0,6.0,43,0.00,,,0.00,150,HR-IXPWINDi_r2_v1.2.,2013-06-15 17:40:00,
2013-06-15 13:45:00,74.2,50.2,29.93,East,88,0.0,6.0,43,0.00,,,0.00,994,HR-IXPWINDi_r2_v1.2.,2013-06-15 17:45:00,
2013-06-15 13:50:00,74.9,51.5,29.93,SSW,193,2.0,3.0,44,0.00,,,0.00,927,HR-IXPWINDi_r2_v1.2.,2013-06-15 17:50:00,
2013-06-15 13:56:00,76.0,51.2,29.93,SSE,167,3.0,5.0,42,0.00,,,0.00,980,HR-IXPWINDi_r2_v1.2.,2013-06-15 17:56:00,
2013-06-15 14:01:00,76.1,51.3,29.93,SSE,161,0.0,5.0,42,0.00,,,0.00,929,HR-IXPWINDi_r2_v1.2.,2013-06-15 18:01:00,
2013-06-15 14:06:00,76.3,52.1,29.92,SSE,161,2.0,5.0,43,0.00,,,0.00,164,HR-IXPWINDi_r2_v1.2.,2013-06-15 18:06:00,
2013-06-15 14:11:00,76.1,50.7,29.92,ENE,78,1.0,4.0,41,0.00,,,0.00,989,HR-IXPWINDi_r2_v1.2.,2013-06-15 18:11:00,
2013-06-15 14:16:00,76.0,50.6,29.92,ESE,106,3.0,5.0,41,0.00,,,0.00,910,HR-IXPWINDi_r2_v1.2.,2013-06-15 18:16:00,
2013-06-15 14:21:00,76.0,49.2,29.91,ESE,103,3.0,6.0,39,0.00,,,0.00,896,HR-IXPWINDi_r2_v1.2.,2013-06-15 18:21:00,
2013-06-15 14:27:00,75.8,50.4,29.91,East,95,1.0,6.0,41,0.00,,,0.00,846,HR-IXPWINDi_r2_v1.2.,2013-06-15 18:27:00,
2013-06-15 14:32:00,76.1,50.7,29.91,ENE,62,2.0,5.0,41,0.00,,,0.00,139,HR-IXPWINDi_r2_v1.2.,2013-06-15 18:32:00,
2013-06-15 14:37:00,76.5,51.7,29.91,ENE,62,0.0,5.0,42,0.00,,,0.00,165,HR-IXPWINDi_r2_v1.2.,2013-06-15 18:37:00,
2013-06-15 14:42:00,76.7,48.4,29.91,ESE,117,5.0,6.0,37,0.00,,,0.00,853,HR-IXPWINDi_r2_v1.2.,2013-06-15 18:42:00,
2013-06-15 14:47:00,76.5,48.3,29.91,East,90,3.0,7.0,37,0.00,,,0.00,859,HR-IXPWINDi_r2_v1.2.,2013-06-15 18:47:00,
2013-06-15 14:52:00,76.5,47.5,29.90,East,90,2.0,7.0,36,0.00,,,0.00,834,HR-IXPWINDi_r2_v1.2.,2013-06-15 18:52:00,
2013-06-15 14:58:00,76.8,47.8,29.90,East,79,3.0,5.0,36,0.00,,,0.00,816,HR-IXPWINDi_r2_v1.2.,2013-06-15 18:58:00,
2013-06-15 15:03:00,77.2,50.3,29.90,NW,326,0.0,5.0,39,0.00,,,0.00,809,HR-IXPWINDi_r2_v1.2.,2013-06-15 19:03:00,
2013-06-15 15:08:00,77.2,49.6,29.90,SSE,158,0.0,5.0,38,0.00,,,0.00,809,HR-IXPWINDi_r2_v1.2.,2013-06-15 19:08:00,
2013-06-15 15:14:00,77.0,50.8,29.90,SSE,167,2.0,5.0,40,0.00,,,0.00,832,HR-IXPWINDi_r2_v1.2.,2013-06-15 19:14:00,
2013-06-15 15:19:00,77.2,49.6,29.90,SSW,192,2.0,5.0,38,0.00,,,0.00,95,HR-IXPWINDi_r2_v1.2.,2013-06-15 19:19:00,
2013-06-15 15:24:00,76.8,51.3,29.90,East,92,1.0,5.0,41,0.00,,,0.00,767,HR-IXPWINDi_r2_v1.2.,2013-06-15 19:24:00,
2013-06-15 15:29:00,76.8,50.6,29.90,ESE,113,3.0,6.0,40,0.00,,,0.00,769,HR-IXPWINDi_r2_v1.2.,2013-06-15 19:29:00,
2013-06-15 15:34:00,76.8,51.9,29.90,ESE,113,0.0,6.0,42,0.00,,,0.00,753,HR-IXPWINDi_r2_v1.2.,2013-06-15 19:34:00,
2013-06-15 15:40:00,77.4,51.2,29.89,South,185,1.0,6.0,40,0.00,,,0.00,322,HR-IXPWINDi_r2_v1.2.,2013-06-15 19:40:00,
2013-06-15 15:45:00,77.4,49.8,29.89,ESE,107,1.0,6.0,38,0.00,,,0.00,739,HR-IXPWINDi_r2_v1.2.,2013-06-15 19:45:00,
2013-06-15 15:50:00,77.2,49.6,29.88,SSE,151,5.0,5.0,38,0.00,,,0.00,707,HR-IXPWINDi_r2_v1.2.,2013-06-15 19:50:00,
2013-06-15 15:55:00,77.2,48.9,29.88,ESE,106,0.0,5.0,37,0.00,,,0.00,728,HR-IXPWINDi_r2_v1.2.,2013-06-15 19:55:00,
2013-06-15 16:00:00,77.4,50.5,29.88,ESE,116,6.0,6.0,39,0.00,,,0.00,690,HR-IXPWINDi_r2_v1.2.,2013-06-15 20:00:00,
2013-06-15 16:06:00,77.4,49.8,29.88,ESE,121,1.0,6.0,38,0.00,,,0.00,669,HR-IXPWINDi_r2_v1.2.,2013-06-15 20:06:00,
2013-06-15 16:11:00,77.4,49.1,29.88,ESE,114,0.0,6.0,37,0.00,,,0.00,655,HR-IXPWINDi_r2_v1.2.,2013-06-15 20:11:00,
2013-06-15 16:16:00,77.2,49.6,29.88,SSE,150,1.0,5.0,38,0.00,,,0.00,637,HR-IXPWINDi_r2_v1.2.,2013-06-15 20:16:00,
2013-06-15 16:21:00,77.0,49.4,29.88,SSE,148,2.0,5.0,38,0.00,,,0.00,625,HR-IXPWINDi_r2_v1.2.,2013-06-15 20:21:00,
2013-06-15 16:26:00,77.2,50.3,29.88,SSE,151,0.0,6.0,39,0.00,,,0.00,614,HR-IXPWINDi_r2_v1.2.,2013-06-15 20:26:00,
2013-06-15 16:32:00,77.6,49.2,29.88,SSE,157,0.0,6.0,37,0.00,,,0.00,596,HR-IXPWINDi_r2_v1.2.,2013-06-15 20:32:00,
2013-06-15 16:37:00,77.6,48.5,29.88,South,181,1.0,6.0,36,0.00,,,0.00,584,HR-IXPWINDi_r2_v1.2.,2013-06-15 20:37:00,
2013-06-15 16:42:00,77.4,50.5,29.88,South,172,0.0,6.0,39,0.00,,,0.00,211,HR-IXPWINDi_r2_v1.2.,2013-06-15 20:42:00,
2013-06-15 16:47:00,77.2,50.3,29.88,South,171,1.0,3.0,39,0.00,,,0.00,99,HR-IXPWINDi_r2_v1.2.,2013-06-15 20:47:00,
2013-06-15 16:53:00,77.0,51.5,29.88,South,176,1.0,5.0,41,0.00,,,0.00,99,HR-IXPWINDi_r2_v1.2.,2013-06-15 20:53:00,
2013-06-15 16:58:00,76.7,50.5,29.88,ENE,66,0.0,5.0,40,0.00,,,0.00,91,HR-IXPWINDi_r2_v1.2.,2013-06-15 20:58:00,
2013-06-15 17:03:00,76.5,51.0,29.88,ENE,66,0.0,5.0,41,0.00,,,0.00,93,HR-IXPWINDi_r2_v1.2.,2013-06-15 21:03:00,
2013-06-15 17:08:00,76.3,50.2,29.88,ENE,66,0.0,3.0,40,0.00,,,0.00,84,HR-IXPWINDi_r2_v1.2.,2013-06-15 21:08:00,
2013-06-15 17:13:00,76.3,51.5,29.88,East,90,0.0,3.0,42,0.00,,,0.00,67,HR-IXPWINDi_r2_v1.2.,2013-06-15 21:13:00,
2013-06-15 17:19:00,76.3,50.8,29.88,East,90,0.0,2.0,41,0.00,,,0.00,88,HR-IXPWINDi_r2_v1.2.,2013-06-15 21:19:00,
2013-06-15 17:24:00,76.1,50.7,29.88,SE,145,0.0,3.0,41,0.00,,,0.00,74,HR-IXPWINDi_r2_v1.2.,2013-06-15 21:24:00,
2013-06-15 17:29:00,76.0,50.6,29.88,NE,41,0.0,3.0,41,0.00,,,0.00,77,HR-IXPWINDi_r2_v1.2.,2013-06-15 21:29:00,
2013-06-15 17:35:00,76.0,51.8,29.88,NE,41,2.0,3.0,43,0.00,,,0.00,58,HR-IXPWINDi_r2_v1.2.,2013-06-15 21:35:00,
2013-06-15 17:40:00,75.6,50.2,29.88,NE,41,0.0,3.0,41,0.00,,,0.00,63,HR-IXPWINDi_r2_v1.2.,2013-06-15 21:40:00,
2013-06-15 17:45:00,75.4,51.3,29.88,NE,41,0.0,3.0,43,0.00,,,0.00,32,HR-IXPWINDi_r2_v1.2.,2013-06-15 21:45:00,
2013-06-15 17:50:00,75.4,50.0,29.89,NE,37,0.0,2.0,41,0.00,,,0.00,55,HR-IXPWINDi_r2_v1.2.,2013-06-15 21:50:00,
2013-06-15 17:55:00,75.1,51.7,29.89,NE,37,2.0,2.0,44,0.00,,,0.00,99,HR-IXPWINDi_r2_v1.2.,2013-06-15 21:55:00,
2013-06-15 18:00:00,75.1,51.7,29.89,SE,126,0.0,3.0,44,0.00,,,0.00,72,HR-IXPWINDi_r2_v1.2.,2013-06-15 22:00:00,
2013-06-15 18:05:00,75.1,51.7,29.88,ENE,72,0.0,3.0,44,0.00,,,0.00,55,HR-IXPWINDi_r2_v1.2.,2013-06-15 22:05:00,
2013-06-15 18:10:00,75.1,52.3,29.88,ENE,72,0.0,3.0,45,0.00,,,0.00,51,HR-IXPWINDi_r2_v1.2.,2013-06-15 22:10:00,
2013-06-15 18:15:00,74.9,50.2,29.88,ESE,114,0.0,2.0,42,0.00,,,0.00,30,HR-IXPWINDi_r2_v1.2.,2013-06-15 22:15:00,
2013-06-15 18:21:00,74.7,52.5,29.88,ESE,114,0.0,2.0,46,0.00,,,0.00,35,HR-IXPWINDi_r2_v1.2.,2013-06-15 22:21:00,
2013-06-15 18:26:00,74.6,51.2,29.88,ESE,114,0.0,2.0,44,0.00,,,0.00,42,HR-IXPWINDi_r2_v1.2.,2013-06-15 22:26:00,
2013-06-15 18:31:00,74.6,51.8,29.88,ESE,114,0.0,2.0,45,0.00,,,0.00,35,HR-IXPWINDi_r2_v1.2.,2013-06-15 22:31:00,
2013-06-15 18:36:00,74.4,52.2,29.88,ESE,114,0.0,2.0,46,0.00,,,0.00,23,HR-IXPWINDi_r2_v1.2.,2013-06-15 22:36:00,
2013-06-15 18:42:00,74.2,51.5,29.88,ESE,114,0.0,2.0,45,0.00,,,0.00,21,HR-IXPWINDi_r2_v1.2.,2013-06-15 22:42:00,
2013-06-15 18:47:00,74.0,52.4,29.88,ESE,104,0.0,1.0,47,0.00,,,0.00,19,HR-IXPWINDi_r2_v1.2.,2013-06-15 22:47:00,
2013-06-15 18:52:00,73.9,52.9,29.88,ESE,104,0.0,1.0,48,0.00,,,0.00,23,HR-IXPWINDi_r2_v1.2.,2013-06-15 22:52:00,
2013-06-15 18:57:00,73.7,52.2,29.88,ESE,104,0.0,2.0,47,0.00,,,0.00,19,HR-IXPWINDi_r2_v1.2.,2013-06-15 22:57:00,
2013-06-15 19:02:00,73.3,52.4,29.88,ESE,104,0.0,2.0,48,0.00,,,0.00,16,HR-IXPWINDi_r2_v1.2.,2013-06-15 23:02:00,
2013-06-15 19:07:00,73.2,52.3,29.88,ESE,104,0.0,0.0,48,0.00,,,0.00,16,HR-IXPWINDi_r2_v1.2.,2013-06-15 23:07:00,
2013-06-15 19:12:00,72.8,52.5,29.88,ESE,104,0.0,0.0,49,0.00,,,0.00,14,HR-IXPWINDi_r2_v1.2.,2013-06-15 23:12:00,
2013-06-15 19:17:00,72.5,51.6,29.88,ESE,104,0.0,0.0,48,0.00,,,0.00,12,HR-IXPWINDi_r2_v1.2.,2013-06-15 23:17:00,
2013-06-15 19:23:00,72.3,52.6,29.88,ESE,104,0.0,0.0,50,0.00,,,0.00,12,HR-IXPWINDi_r2_v1.2.,2013-06-15 23:23:00,
2013-06-15 19:28:00,72.1,53.5,29.88,ESE,104,0.0,0.0,52,0.00,,,0.00,12,HR-IXPWINDi_r2_v1.2.,2013-06-15 23:28:00,
2013-06-15 19:33:00,72.0,52.3,29.88,ESE,104,0.0,0.0,50,0.00,,,0.00,11,HR-IXPWINDi_r2_v1.2.,2013-06-15 23:33:00,
2013-06-15 19:38:00,71.8,52.7,29.88,ESE,104,0.0,0.0,51,0.00,,,0.00,11,HR-IXPWINDi_r2_v1.2.,2013-06-15 23:38:00,
2013-06-15 19:44:00,71.6,53.0,29.88,ESE,104,0.0,0.0,52,0.00,,,0.00,9,HR-IXPWINDi_r2_v1.2.,2013-06-15 23:44:00,
2013-06-15 19:49:00,71.5,53.4,29.88,ESE,104,0.0,0.0,53,0.00,,,0.00,7,HR-IXPWINDi_r2_v1.2.,2013-06-15 23:49:00,
2013-06-15 19:54:00,71.3,53.7,29.89,ESE,104,0.0,0.0,54,0.00,,,0.00,7,HR-IXPWINDi_r2_v1.2.,2013-06-15 23:54:00,
2013-06-15 19:59:00,71.1,53.6,29.89,ESE,104,0.0,0.0,54,0.00,,,0.00,5,HR-IXPWINDi_r2_v1.2.,2013-06-15 23:59:00,
2013-06-15 20:04:00,70.9,54.4,29.89,ESE,104,0.0,0.0,56,0.00,,,0.00,5,HR-IXPWINDi_r2_v1.2.,2013-06-16 00:04:00,
2013-06-15 20:09:00,70.8,54.3,29.89,ESE,104,0.0,0.0,56,0.00,,,0.00,0,HR-IXPWINDi_r2_v1.2.,2013-06-16 00:09:00,
2013-06-15 20:15:00,70.4,53.9,29.89,ESE,104,0.0,0.0,56,0.00,,,0.00,0,HR-IXPWINDi_r2_v1.2.,2013-06-16 00:15:00,
2013-06-15 20:20:00,70.1,54.1,29.90,ESE,104,0.0,0.0,57,0.00,,,0.00,0,HR-IXPWINDi_r2_v1.2.,2013-06-16 00:20:00,
2013-06-15 20:25:00,69.8,54.8,29.90,ESE,104,0.0,0.0,59,0.00,,,0.00,0,HR-IXPWINDi_r2_v1.2.,2013-06-16 00:25:00,
2013-06-15 20:30:00,69.4,54.4,29.90,ESE,104,0.0,0.0,59,0.00,,,0.00,0,HR-IXPWINDi_r2_v1.2.,2013-06-16 00:30:00,
2013-06-15 20:35:00,68.9,54.8,29.90,ESE,104,0.0,0.0,61,0.00,,,0.00,0,HR-IXPWINDi_r2_v1.2.,2013-06-16 00:35:00,
2013-06-15 20:40:00,68.6,55.4,29.90,ESE,104,0.0,0.0,63,0.00,,,0.00,0,HR-IXPWINDi_r2_v1.2.,2013-06-16 00:40:00,
2013-06-15 20:46:00,68.3,56.0,29.90,ESE,104,0.0,0.0,65,0.00,,,0.00,0,HR-IXPWINDi_r2_v1.2.,2013-06-16 00:46:00,
2013-06-15 20:51:00,67.8,56.8,29.90,ESE,104,0.0,0.0,68,0.00,,,0.00,0,HR-IXPWINDi_r2_v1.2.,2013-06-16 00:51:00,
2013-06-15 20:56:00,67.4,56.4,29.90,ESE,104,0.0,0.0,68,0.00,,,0.00,0,HR-IXPWINDi_r2_v1.2.,2013-06-16 00:56:00,
2013-06-15 21:01:00,67.1,56.1,29.90,ESE,104,0.0,0.0,68,0.00,,,0.00,0,HR-IXPWINDi_r2_v1.2.,2013-06-16 01:01:00,
2013-06-15 21:06:00,66.6,54.8,29.90,ESE,104,0.0,0.0,66,0.00,,,0.00,0,HR-IXPWINDi_r2_v1.2.,2013-06-16 01:06:00,
2013-06-15 21:12:00,66.1,55.2,29.90,ESE,104,0.0,0.0,68,0.00,,,0.00,0,HR-IXPWINDi_r2_v1.2.,2013-06-16 01:12:00,
2013-06-15 21:17:00,65.6,55.1,29.90,ESE,104,0.0,0.0,69,0.00,,,0.00,0,HR-IXPWINDi_r2_v1.2.,2013-06-16 01:17:00,
2013-06-15 21:22:00,65.2,55.9,29.91,ESE,104,0.0,0.0,72,0.00,,,0.00,0,HR-IXPWINDi_r2_v1.2.,2013-06-16 01:22:00,
2013-06-15 21:27:00,64.8,55.9,29.91,ESE,104,0.0,0.0,73,0.00,,,0.00,0,HR-IXPWINDi_r2_v1.2.,2013-06-16 01:27:00,
2013-06-15 21:32:00,64.5,56.0,29.91,ESE,104,0.0,0.0,74,0.00,,,0.00,0,HR-IXPWINDi_r2_v1.2.,2013-06-16 01:32:00,
2013-06-15 21:37:00,64.0,55.5,29.91,ESE,104,0.0,0.0,74,0.00,,,0.00,0,HR-IXPWINDi_r2_v1.2.,2013-06-16 01:37:00,
2013-06-15 21:43:00,63.7,55.6,29.91,ESE,104,0.0,0.0,75,0.00,,,0.00,0,HR-IXPWINDi_r2_v1.2.,2013-06-16 01:43:00,
2013-06-15 21:48:00,63.4,55.6,29.91,ESE,104,0.0,0.0,76,0.00,,,0.00,0,HR-IXPWINDi_r2_v1.2.,2013-06-16 01:48:00,
2013-06-15 21:53:00,63.2,55.8,29.92,ESE,104,0.0,0.0,77,0.00,,,0.00,0,HR-IXPWINDi_r2_v1.2.,2013-06-16 01:53:00,
2013-06-15 21:58:00,63.1,55.7,29.92,ESE,104,0.0,0.0,77,0.00,,,0.00,0,HR-IXPWINDi_r2_v1.2.,2013-06-16 01:58:00,
2013-06-15 22:03:00,62.9,55.9,29.92,ESE,104,0.0,0.0,78,0.00,,,0.00,0,HR-IXPWINDi_r2_v1.2.,2013-06-16 02:03:00,
2013-06-15 22:09:00,62.7,56.0,29.93,ESE,104,0.0,0.0,79,0.00,,,0.00,0,HR-IXPWINDi_r2_v1.2.,2013-06-16 02:09:00,
2013-06-15 22:14:00,62.4,55.7,29.93,ESE,104,0.0,0.0,79,0.00,,,0.00,0,HR-IXPWINDi_r2_v1.2.,2013-06-16 02:14:00,
2013-06-15 22:19:00,62.3,56.0,29.93,ESE,104,0.0,0.0,80,0.00,,,0.00,0,HR-IXPWINDi_r2_v1.2.,2013-06-16 02:19:00,
2013-06-15 22:26:00,62.3,56.0,29.93,ESE,104,0.0,0.0,80,0.00,,,0.00,0,HR-IXPWINDi_r2_v1.2.,2013-06-16 02:26:00,
2013-06-15 22:31:00,62.1,56.1,29.93,ESE,104,0.0,0.0,81,0.00,,,0.00,0,HR-IXPWINDi_r2_v1.2.,2013-06-16 02:31:00,
2013-06-15 22:36:00,62.0,55.7,29.93,ESE,104,0.0,0.0,80,0.00,,,0.00,0,HR-IXPWINDi_r2_v1.2.,2013-06-16 02:36:00,
2013-06-15 22:41:00,61.8,55.5,29.93,ESE,104,0.0,0.0,80,0.00,,,0.00,0,HR-IXPWINDi_r2_v1.2.,2013-06-16 02:41:00,
2013-06-15 22:46:00,61.6,55.3,29.93,ESE,104,0.0,0.0,80,0.00,,,0.00,0,HR-IXPWINDi_r2_v1.2.,2013-06-16 02:46:00,
2013-06-15 22:52:00,61.6,55.3,29.93,ESE,104,0.0,0.0,80,0.00,,,0.00,0,HR-IXPWINDi_r2_v1.2.,2013-06-16 02:52:00,
2013-06-15 22:57:00,61.3,55.4,29.93,ESE,104,0.0,0.0,81,0.00,,,0.00,0,HR-IXPWINDi_r2_v1.2.,2013-06-16 02:57:00,
2013-06-15 23:02:00,61.2,55.6,29.93,ESE,104,0.0,0.0,82,0.00,,,0.00,0,HR-IXPWINDi_r2_v1.2.,2013-06-16 03:02:00,
2013-06-15 23:07:00,60.9,55.3,29.93,ESE,104,0.0,0.0,82,0.00,,,0.00,0,HR-IXPWINDi_r2_v1.2.,2013-06-16 03:07:00,
2013-06-15 23:13:00,60.7,55.1,29.93,ESE,104,0.0,0.0,82,0.00,,,0.00,0,HR-IXPWINDi_r2_v1.2.,2013-06-16 03:13:00,
2013-06-15 23:18:00,60.5,55.2,29.93,ESE,104,0.0,0.0,83,0.00,,,0.00,0,HR-IXPWINDi_r2_v1.2.,2013-06-16 03:18:00,
2013-06-15 23:23:00,60.2,55.0,29.93,ESE,104,0.0,0.0,83,0.00,,,0.00,0,HR-IXPWINDi_r2_v1.2.,2013-06-16 03:23:00,
2013-06-15 23:28:00,60.1,55.2,29.93,ESE,104,0.0,0.0,84,0.00,,,0.00,0,HR-IXPWINDi_r2_v1.2.,2013-06-16 03:28:00,
2013-06-15 23:33:00,59.9,55.0,29.93,ESE,104,0.0,0.0,84,0.00,,,0.00,0,HR-IXPWINDi_r2_v1.2.,2013-06-16 03:33:00,
2013-06-15 23:38:00,59.9,55.3,29.94,ESE,104,0.0,0.0,85,0.00,,,0.00,0,HR-IXPWINDi_r2_v1.2.,2013-06-16 03:38:00,
2013-06-15 23:44:00,59.9,55.3,29.94,ESE,104,0.0,0.0,85,0.00,,,0.00,0,HR-IXPWINDi_r2_v1.2.,2013-06-16 03:44:00,
2013-06-15 23:49:00,59.9,55.3,29.94,ESE,104,0.0,0.0,85,0.00,,,0.00,0,HR-IXPWINDi_r2_v1.2.,2013-06-16 03:49:00,
2013-06-15 23:54:00,59.6,55.0,29.94,ESE,104,0.0,0.0,85,0.00,,,0.00,0,HR-IXPWINDi_r2_v1.2.,2013-06-16 03:54:00,
2013-06-15 23:59:00,59.5,54.9,29.94,ESE,104,0.0,0.0,85,0.00,,,0.00,0,HR-IXPWINDi_r2_v1.2.,2013-06-16 03:59:00,